Regional Weather Roundup
Issued by NWS Little Rock, AR

Home | Current Version | Previous Version | Graphics & Text | Print | Product List | Glossary On
Versions: 1 2 3 4 5 6 7 8 9 10 11 12 13 14 15 16 17 18 19 20 21 22 23 24 25 26 27 28 29 30 31 32 33 34 35 36 37 38 39 40 41 42 43 44 45 46 47 48 49 50
327
ASUS44 KLZK 200905
RWRLZK

WEATHER ROUNDUP FOR ARKANSAS
NATIONAL WEATHER SERVICE LITTLE ROCK AR
300 AM CST FRI JAN 20 2017

NOTE: "FAIR" INDICATES FEW OR NO CLOUDS BELOW 12,000 FEET WITH NO
SIGNIFICANT WEATHER AND/OR OBSTRUCTIONS TO VISIBILITY.

ARZ001-003-010-029-201000-
NORTHWEST ARKANSAS

CITY           SKY/WX    TMP DP  RH WIND       PRES   REMARKS
FAYETTEVILLE   CLOUDY    49  48  97 CALM      29.60F
FORT SMITH     CLOUDY    44  43  96 NE6       29.60F
HARRISON       MOCLDY    45  45 100 SE6       29.62S
BENTONVILLE    CLOUDY   N/A N/A N/A CALM      29.61S
ROGERS         CLOUDY    45  45 100 E6        29.62R
SILOAM SPGS    CLOUDY    46  45  93 CALM      29.60S
HIGHFILL       CLOUDY    46  45  96 CALM      29.60S
$$

ARZ004-005-016-201000-
NORTH CENTRAL ARKANSAS

CITY           SKY/WX    TMP DP  RH WIND       PRES   REMARKS
BATESVILLE     MOCLDY    54  46  76 SW9       29.67F
FLIPPIN        CLOUDY    43  37  81 CALM      29.62S VSB 1/4
MTN HOME       FOG       42  42 100 E5        29.63F VSB 1/2
$$

ARZ040-041-201000-
WEST CENTRAL ARKANSAS

CITY           SKY/WX    TMP DP  RH WIND       PRES   REMARKS
MENA           CLOUDY    55  54  94 S3        29.63F
MOUNT IDA      CLOUDY    55  51  86 CALM      29.61F
$$

ARZ009-017-025-026-028-201000-
NORTHEAST ARKANSAS

CITY           SKY/WX    TMP DP  RH WIND       PRES   REMARKS
CORNING        CLOUDY    50  50 100 SW8       29.68S
JONESBORO      CLOUDY    53  50  89 S7        29.68S
NEWPORT        CLOUDY    52  51  97 S10         N/A
WALNUT RIDGE   CLEAR     48  46  93 S6        29.67S
BLYTHEVILLE    CLOUDY    55  53  93 SW9       29.70S
$$

ARZ022-023-033-042-044-201000-
CENTRAL ARKANSAS

CITY           SKY/WX    TMP DP  RH WIND       PRES   REMARKS
LITTLE ROCK    CLOUDY    54  54 100 S6        29.67F
N LITTLE ROCK    N/A     54  52  93 SW6       29.69S
JACKSONVILLE   CLOUDY    55  55  97 S5        29.66F
SEARCY         CLOUDY    53  53 100 CALM      29.70F
HOT SPRINGS    CLOUDY    55  53  93 CALM      29.66F
RUSSELLVILLE   CLOUDY    52  49  89 CALM      29.63F
CLINTON        CLOUDY    50  50 100 CALM      29.66F FOG
$$

ARZ036-201000-
EAST ARKANSAS

CITY           SKY/WX    TMP DP  RH WIND       PRES   REMARKS
WEST MEMPHIS   CLOUDY    55  55 100 S3        29.71R
$$

ARZ050-053-066-070-073-201000-
SOUTHWEST ARKANSAS

CITY           SKY/WX    TMP DP  RH WIND       PRES   REMARKS
ARKADELPHIA    CLOUDY    54  53  97 CALM      29.68S
CAMDEN         CLOUDY    57  54  88 S3        29.69S
TEXARKANA      PTCLDY    56  56 100 S10       29.64F
EL DORADO      MOCLDY    57  56  96 S7        29.69S
DE QUEEN       CLOUDY    55  55 100 CALM      29.63S
$$

ARZ056-057-069-201000-
SOUTHEAST ARKANSAS

CITY           SKY/WX    TMP DP  RH WIND       PRES   REMARKS
PINE BLUFF     CLOUDY    57  56  96 S9        29.70S
STUTTGART      CLOUDY    55  48  76 S10       29.70F
MONTICELLO     CLOUDY    60  58  92 S9        29.71R

$$






USA.gov is the U.S. government's official web portal to all federal, state and local government web resources and services.